Cloud_Cover
8 25 100 99 87 90 92 77 34 43 94 99 96 74 96 100 94 98 100 100 100 100 100 97 100 100 100 100 99 100 100 99 100 100 100 100 100 100 18 76 5 5 97 94 28 17 45 5 6
99 97 94 52 99 84 97 100 78 68 66 94 92 69 48 25 100 100 100 100 100 100 100 100 100 100 100 100 93 100 100 88 90 99 100 100 37 47 100 97 3 60 42 32 5 49 66 5 5
87 86 72 100 69 75 91 51 23 19 56 100 78 100 68 12 78 100 100 100 100 100 100 100 100 100 100 100 79 90 100 64 100 89 100 97 98 100 100 6 8 75 6 64 23 57 15 5 5
59 98 52 100 92 100 100 46 19 21 17 98 34 25 20 28 70 97 100 100 100 100 100 100 100 100 100 100 100 85 100 100 100 100 100 100 95 100 17 53 18 6 31 23 63 45 25 25 12
60 46 90 96 99 72 34 50 81 49 2 61 70 100 46 100 98 96 97 100 100 100 100 100 100 100 100 100 100 100 100 95 100 97 43 68 100 52 4 35 5 5 23 65 65 74 8 5 5
54 100 100 64 49 67 63 31 21 3 2 5 47 82 65 61 47 100 100 94 100 100 100 100 100 100 100 100 100 100 82 30 66 100 59 100 100 6 10 9 8 7 32 6 22 39 41 5 5
71 68 66 99 87 63 26 36 51 0 0 61 46 32 58 99 16 100 100 99 100 100 100 100 100 100 100 100 78 100 8 100 100 100 100 100 100 5 52 2 0 5 5 5 10 5 5 5 8
46 25 81 60 27 90 12 1 0 15 0 12 67 8 57 100 9 72 100 94 80 99 100 100 100 100 100 100 47 100 100 100 100 100 99 99 94 5 0 0 0 5 5 12 5 5 5 64 6
95 100 60 75 100 11 14 4 0 0 2 0 49 0 33 28 83 86 100 99 71 98 100 100 100 100 99 73 70 80 83 54 100 100 93 100 80 71 20 3 5 5 5 12 5 5 5 5 85
100 100 96 48 92 10 65 3 0 23 0 0 3 14 24 22 65 91 100 81 76 100 100 100 100 94 63 80 100 100 100 95 100 72 100 98 64 81 87 0 2 5 5 18 5 5 5 5 100
70 65 80 5 33 77 88 5 25 68 0 0 0 0 0 3 38 98 77 77 100 100 100 100 100 100 100 100 49 86 100 100 98 26 58 96 83 85 92 62 99 41 66 82 33 99 93 92 100
85 11 20 8 100 98 100 17 39 95 0 0 0 0 0 0 20 41 40 18 62 96 100 100 100 86 98 100 83 70 100 94 100 75 5 22 72 96 29 99 100 100 100 82 97 100 100 100 95
80 35 75 88 100 99 90 36 5 2 0 0 0 0 4 0 0 46 11 5 8 23 95 100 100 100 95 99 100 100 96 14 92 15 14 93 97 81 100 6 43 30 92 60 62 47 93 100 100
10 30 33 32 97 68 26 21 22 0 0 0 0 0 0 0 0 6 44 81 90 5 12 90 80 62 100 98 82 72 5 69 99 100 100 0 91 100 100 50 99 86 100 90 94 50 92 100 100
5 5 7 87 83 32 4 5 36 0 0 0 0 0 0 0 0 0 0 3 7 0 0 0 5 5 5 5 5 5 12 97 84 100 18 0 56 92 100 32 60 100 100 88 100 96 94 100 78
4 84 100 8 95 18 86 73 0 0 0 0 0 0 0 0 0 0 0 0 0 0 0 0 0 5 39 65 4 7 82 90 100 100 99 9 12 40 100 100 83 41 68 100 77 63 99 91 65
85 100 80 7 5 80 77 13 0 1 0 8 0 0 0 0 0 0 0 0 0 0 0 0 0 1 0 100 19 50 51 48 100 88 100 99 34 6 100 61 100 100 100 99 62 98 85 95 81
4 88 100 61 5 96 100 18 0 3 16 27 0 0 0 0 2 0 0 0 0 0 0 0 0 0 0 0 5 26 81 100 68 93 99 74 97 7 92 96 82 73 99 98 86 50 42 100 60
4 8 100 55 5 50 100 62 4 5 5 8 0 0 0 0 2 12 22 0 0 0 0 0 0 0 0 0 3 41 100 99 100 36 7 0 95 79 100 68 5 10 53 5 11 66 100 88 72
4 15 29 64 3 36 100 100 31 5 37 4 5 5 0 4 12 14 22 25 3 0 0 0 0 0 0 0 11 47 25 76 63 70 48 1 6 14 27 5 34 6 76 94 100 99 79 96 75
4 2 0 23 3 56 44 100 100 18 72 19 5 5 29 4 4 8 5 26 15 4 0 0 0 1 2 3 1 5 5 5 5 1 4 10 3 13 36 24 50 94 99 96 88 18 11 66 80
5 0 0 0 23 100 98 100 100 86 5 31 11 99 100 100 70 3 5 14 14 3 0 0 3 5 3 4 5 2 6 10 42 44 61 47 5 5 33 48 78 60 7 16 42 75 24 1 28
0 0 0 0 0 70 47 95 100 3 25 59 100 100 100 100 100 3 0 4 5 0 0 0 0 0 4 0 0 0 0 42 70 56 36 0 1 0 10 54 60 0 29 77 100 86 58 6 28
0 0 0 0 0 100 70 72 100 20 0 24 100 100 80 88 100 44 5 0 0 2 0 0 0 0 0 0 0 0 0 4 48 5 72 0 0 2 5 30 93 5 30 94 97 100 84 21 59
0 0 25 34 98 100 56 100 100 100 2 4 73 86 100 14 98 97 4 15 0 0 0 0 0 0 0 0 0 0 0 0 0 5 2 51 3 0 0 4 57 18 58 83 15 90 20 16 9
4 0 30 41 100 100 0 22 60 63 4 3 2 100 100 100 100 95 91 7 7 16 0 0 0 0 0 0 0 0 0 0 0 0 8 20 29 0 0 0 19 41 10 2 28 37 3 52 76
0 0 3 0 3 2 100 100 97 92 17 0 1 26 99 100 100 97 52 5 5 83 10 8 0 0 3 4 2 0 0 0 0 0 0 0 0 0 0 0 57 33 24 96 96 14 5 5 2
0 1 1 0 17 48 87 100 29 100 3 0 0 1 50 68 100 90 100 71 2 10 100 6 5 5 4 2 5 4 0 0 0 0 0 0 0 0 2 0 3 99 11 52 39 14 5 1 5
0 0 0 49 20 93 78 88 29 80 2 4 0 9 6 99 100 100 99 100 62 91 92 19 5 5 96 74 5 14 4 4 0 0 0 0 0 0 0 0 0 76 72 75 53 6 5 2 0
0 31 37 66 68 0 51 63 0 0 0 0 3 0 1 0 7 22 85 100 100 12 37 19 100 100 77 71 23 100 19 5 0 5 5 0 0 0 0 0 0 36 76 100 85 31 10 11 5